EW8669 Weather Reports


Display with metric or nautical units.
time (UTC)temp
F
wind
direction
speed
MPH
gust
MPH
rain 1hr
in
rain 24hr
in
rain mn
in
humidity
%
barometer
mb
20260502220041 71 286 5.0 14.0 0.01 0.12 0.12 91 1010.2
20260502215523 71 269 9.0 14.0 0.02 0.12 0.12 91 1010.2
20260502215023 71 276 8.0 13.0 0.02 0.12 0.12 92 1010.3
20260502214541 71 259 10.0 13.0 0.03 0.12 0.12 91 1010.4
20260502214022 70 259 9.0 12.0 0.02 0.11 0.11 92 1010.5
20260502213520 70 221 9.0 12.0 0.03 0.11 0.11 92 1010.2
20260502213041 70 218 6.0 10.0 0.03 0.11 0.11 92 1009.8
20260502212520 70 227 6.0 10.0 0.04 0.11 0.11 92 1009.7
20260502212022 70 233 7.0 10.0 0.11 0.11 0.11 92 1009.9
20260502211545 70 240 5.0 10.0 0.11 0.11 0.11 92 1009.4
20260502211022 69 257 2.0 11.0 0.11 0.11 0.11 92 1009.6
20260502210522 69 279 7.0 11.0 0.11 0.11 0.11 92 1009.7
20260502210035 69 265 8.0 11.0 0.11 0.11 0.11 92 1010.2
20260502205519 69 261 6.0 12.0 0.10 0.10 0.10 91 1010.2
20260502205022 69 258 3.0 14.0 0.10 0.10 0.10 91 1010.2
20260502204541 70 280 5.0 20.0 0.09 0.09 0.09 90 1010.2
20260502204022 70 231 6.0 21.0 0.09 0.09 0.09 89 1010.2
20260502203522 70 284 11.0 22.0 0.08 0.08 0.08 89 1010.7
20260502203042 70 264 10.0 31.0 0.07 0.07 0.07 87 1011.3
20260502202521 72 259 13.0 31.0 0.06 0.06 0.06 84 1011.6
20260502202021 73 267 12.0 29.0 0.00 0.00 0.00 79 1011.5
20260502201539 74 269 13.0 29.0 0.00 0.00 0.00 78 1011.1
20260502201022 74 281 8.0 19.0 0.00 0.00 0.00 80 1010.9
20260502200525 75 259 9.0 19.0 0.00 0.00 0.00 80 1010.9
20260502200038 76 297 7.0 18.0 0.00 0.00 0.00 77 1010.5
20260502195521 79 262 5.0 23.0 0.00 0.00 0.00 73 1010.4
20260502195023 82 302 12.0 23.0 0.00 0.00 0.00 69 1010.5
20260502194542 84 271 6.0 17.0 0.00 0.00 0.00 72 1010.1
20260502194022 84 264 12.0 23.0 0.00 0.00 0.00 71 1009.8
20260502193523 84 240 14.0 23.0 0.00 0.00 0.00 71 1009.4
20260502193043 84 268 14.0 21.0 0.00 0.00 0.00 70 1009.8
20260502192525 84 259 14.0 24.0 0.00 0.00 0.00 70 1009.8
20260502192022 84 265 14.0 24.0 0.00 0.00 0.00 70 1009.8
20260502191541 84 249 15.0 25.0 0.00 0.00 0.00 69 1009.8
20260502191026 84 274 15.0 27.0 0.00 0.00 0.00 69 1009.8
20260502190522 84 265 16.0 27.0 0.00 0.00 0.00 69 1009.7
20260502190039 84 284 11.0 21.0 0.00 0.00 0.00 73 1009.8
20260502185519 84 242 13.0 21.0 0.00 0.00 0.00 74 1009.8
20260502185020 84 225 12.0 19.0 0.00 0.00 0.00 75 1009.8
20260502184545 83 246 13.0 19.0 0.00 0.00 0.00 76 1009.8
20260502184023 82 0 1.0 13.0 0.00 0.00 0.00 79 1010.0
20260502183526 81 222 7.0 13.0 0.00 0.00 0.00 80 1010.0
20260502183035 81 219 7.0 11.0 0.00 0.00 0.00 80 1010.1
20260502182523 81 215 8.0 12.0 0.00 0.00 0.00 79 1010.0
20260502182022 81 221 8.0 16.0 0.00 0.00 0.00 79 1009.9
20260502181540 81 0 0.0 17.0 0.00 0.00 0.00 78 1009.9
20260502181024 81 231 11.0 22.0 0.00 0.00 0.00 77 1009.9
20260502180522 82 231 15.0 22.0 0.00 0.00 0.00 76 1010.0
20260502164023 82 219 12.0 19.0 0.00 0.00 0.00 77 1010.7
20260502163520 81 227 13.0 21.0 0.00 0.00 0.00 77 1010.6
20260502163036 81 246 13.0 21.0 0.00 0.00 0.00 78 1010.7
20260502162526 81 228 15.0 21.0 0.00 0.00 0.00 77 1010.8
20260502162020 81 243 10.0 15.0 0.00 0.00 0.00 78 1010.7
20260502161545 80 238 10.0 18.0 0.00 0.00 0.00 79 1011.1
20260502161021 80 245 10.0 18.0 0.00 0.00 0.00 79 1011.1
20260502160522 80 244 10.0 16.0 0.00 0.00 0.00 79 1011.1
20260502152020 79 237 11.0 18.0 0.00 0.00 0.00 77 1011.4
20260502151536 79 221 13.0 18.0 0.00 0.00 0.00 77 1011.2
20260502151022 79 250 8.0 14.0 0.00 0.00 0.00 78 1011.3
20260502150519 79 233 9.0 14.0 0.00 0.00 0.00 78 1011.4
20260502130523 73 207 7.0 10.0 0.00 0.00 0.00 93 1010.6
20260502123519 72 200 6.0 8.0 0.00 0.00 0.00 95 1010.5
20260502123041 72 208 6.0 9.0 0.00 0.00 0.00 95 1010.4
20260502122520 72 208 5.0 9.0 0.00 0.00 0.00 95 1010.3
20260502122021 72 202 6.0 8.0 0.00 0.00 0.00 95 1010.2
20260502121540 72 205 6.0 9.0 0.00 0.00 0.00 95 1010.1
20260502121022 72 200 6.0 9.0 0.00 0.00 0.00 95 1010.1
20260502120521 72 186 6.0 8.0 0.00 0.00 0.00 95 1010.3
20260502115525 72 228 6.0 9.0 0.00 0.00 0.00 95 1010.4
20260502115019 72 216 6.0 10.0 0.00 0.00 0.00 95 1010.2
20260502114540 72 231 7.0 10.0 0.00 0.00 0.00 95 1010.2
20260502114022 72 222 7.0 10.0 0.00 0.00 0.00 95 1010.2
20260502113524 72 199 7.0 11.0 0.00 0.00 0.00 95 1010.0
20260502113037 72 196 7.0 11.0 0.00 0.00 0.00 95 1010.0
20260502112519 72 188 8.0 10.0 0.00 0.00 0.00 95 1009.9
20260502112020 72 179 6.0 9.0 0.00 0.00 0.00 94 1009.7
20260502111548 72 182 6.0 11.0 0.00 0.00 0.00 94 1009.7
20260502111022 72 195 7.0 11.0 0.00 0.00 0.00 94 1009.7
20260502110522 72 192 7.0 10.0 0.00 0.00 0.00 94 1009.8
20260502110049 72 188 7.0 9.0 0.00 0.00 0.00 94 1009.9
20260502105523 72 184 5.0 8.0 0.00 0.00 0.00 94 1009.7
20260502105019 72 182 3.0 8.0 0.00 0.00 0.00 94 1009.8
20260502104545 71 203 5.0 8.0 0.00 0.00 0.00 94 1009.7
20260502104022 71 204 6.0 8.0 0.00 0.00 0.00 94 1009.7
20260502103520 71 198 3.0 7.0 0.00 0.00 0.00 94 1009.6
20260502103051 71 277 0.0 2.0 0.00 0.00 0.00 93 1009.7
20260502102520 71 0 0.0 2.0 0.00 0.00 0.00 93 1009.6
20260502102020 71 0 0.0 4.0 0.00 0.00 0.00 93 1009.6
20260502101603 71 278 1.0 4.0 0.00 0.00 0.00 93 1009.6
20260502101022 71 270 2.0 4.0 0.00 0.00 0.00 92 1009.7
20260502100520 72 279 2.0 4.0 0.00 0.00 0.00 92 1009.8
20260502091019 71 0 1.0 3.0 0.00 0.00 0.00 92 1010.4
20260502090519 71 267 1.0 3.0 0.00 0.00 0.00 92 1010.4
20260502071020 73 273 1.0 4.0 0.00 0.00 0.00 88 1010.2
20260502070520 73 277 2.0 6.0 0.00 0.00 0.00 88 1010.1
20260502070043 73 279 2.0 6.0 0.00 0.00 0.00 88 1010.3
20260502065520 74 262 2.0 6.0 0.00 0.00 0.00 88 1010.3
20260502065020 74 269 2.0 6.0 0.00 0.00 0.00 88 1010.2
20260502064544 74 254 3.0 6.0 0.00 0.00 0.00 87 1010.3
20260502064019 74 272 2.0 7.0 0.00 0.00 0.00 87 1010.3
20260502063519 74 296 2.0 7.0 0.00 0.00 0.00 87 1010.3
20260502063040 74 288 2.0 7.0 0.00 0.00 0.00 87 1010.4
20260502062522 74 280 2.0 6.0 0.00 0.00 0.00 86 1010.4
20260502062022 74 280 2.0 6.0 0.00 0.00 0.00 86 1010.3
20260502061542 74 263 3.0 6.0 0.00 0.00 0.00 86 1010.4
20260502061020 74 271 2.0 6.0 0.00 0.00 0.00 86 1010.4
20260502060520 74 285 2.0 6.0 0.00 0.00 0.00 85 1010.4
20260502060037 74 288 1.0 7.0 0.00 0.00 0.00 84 1010.4
20260502055520 75 286 4.0 9.0 0.00 0.00 0.00 84 1010.4
20260502055020 75 258 3.0 9.0 0.00 0.00 0.00 83 1010.4
20260502054544 75 260 4.0 9.0 0.00 0.00 0.00 83 1010.5
20260502054019 75 269 4.0 9.0 0.00 0.00 0.00 83 1010.5
20260502053519 75 274 4.0 9.0 0.00 0.00 0.00 82 1010.7
20260502053048 75 278 6.0 9.0 0.00 0.00 0.00 82 1010.7
20260502052523 75 267 6.0 9.0 0.00 0.00 0.00 82 1010.6
20260502052023 75 275 4.0 10.0 0.00 0.00 0.00 82 1010.7
20260502051554 76 252 6.0 10.0 0.00 0.00 0.00 82 1010.6
20260502051020 76 264 6.0 10.0 0.00 0.00 0.00 82 1010.7
20260502050523 76 277 4.0 10.0 0.00 0.00 0.00 81 1010.6
20260502050041 76 279 3.0 10.0 0.00 0.00 0.00 80 1010.6
20260502045523 76 275 4.0 10.0 0.00 0.00 0.00 80 1010.6
20260502045020 76 287 6.0 10.0 0.00 0.00 0.00 80 1010.5
20260502044535 76 263 4.0 8.0 0.00 0.00 0.00 80 1010.4
20260502044023 76 269 5.0 8.0 0.00 0.00 0.00 80 1010.4
20260502043524 76 256 3.0 8.0 0.00 0.00 0.00 80 1010.6
20260502043044 76 279 4.0 8.0 0.00 0.00 0.00 80 1010.6
20260502042524 76 275 2.0 6.0 0.00 0.00 0.00 81 1010.6
20260502042024 75 294 2.0 6.0 0.00 0.00 0.00 82 1010.6
20260502041542 75 279 2.0 4.0 0.00 0.00 0.00 82 1010.5
20260502041023 75 308 1.0 3.0 0.00 0.00 0.00 82 1010.6
20260502040523 75 311 1.0 3.0 0.00 0.00 0.00 83 1010.7
20260502040048 75 315 0.0 3.0 0.00 0.00 0.00 84 1010.8
20260502035523 75 312 1.0 3.0 0.00 0.00 0.00 85 1010.7
20260502035023 75 317 1.0 3.0 0.00 0.00 0.00 86 1010.8
20260502034539 76 12 0.0 2.0 0.00 0.00 0.00 86 1010.7
20260502034025 76 13 1.0 2.0 0.00 0.00 0.00 85 1010.7
20260502033524 76 13 0.0 0.0 0.00 0.00 0.00 84 1010.7
20260502033042 76 0 0.0 0.0 0.00 0.00 0.00 84 1010.7
20260502032525 76 0 0.0 0.0 0.00 0.00 0.00 83 1010.8
20260502032024 77 0 0.0 0.0 0.00 0.00 0.00 83 1010.8
20260502031545 77 0 0.0 1.0 0.00 0.00 0.00 83 1010.7
20260502031024 77 0 0.0 1.0 0.00 0.00 0.00 82 1010.7
20260502030524 77 0 0.0 1.0 0.00 0.00 0.00 82 1010.8
20260502030042 77 0 0.0 1.0 0.00 0.00 0.00 81 1010.8
20260502025523 78 0 0.0 1.0 0.00 0.00 0.00 81 1010.8
20260502025023 78 0 0.0 0.0 0.00 0.00 0.00 79 1010.9
20260502024541 78 0 0.0 2.0 0.00 0.00 0.00 79 1010.9
20260502024023 79 0 0.0 2.0 0.00 0.00 0.00 78 1010.9
20260502023523 79 13 0.0 2.0 0.00 0.00 0.00 78 1010.7
20260502023040 79 13 0.0 2.0 0.00 0.00 0.00 77 1010.7
20260502022524 80 0 0.0 1.0 0.00 0.00 0.00 75 1010.7
20260502022026 80 0 0.0 2.0 0.00 0.00 0.00 75 1010.8
20260502021538 80 0 0.0 2.0 0.00 0.00 0.00 74 1010.7
20260502021023 80 15 0.0 2.0 0.00 0.00 0.00 73 1010.8
20260502020526 81 0 0.0 2.0 0.00 0.00 0.00 71 1010.7
20260502020035 81 15 0.0 2.0 0.00 0.00 0.00 71 1010.5
20260502015520 81 0 0.0 2.0 0.00 0.00 0.00 70 1010.5
20260502015022 82 0 0.0 3.0 0.00 0.00 0.00 68 1010.5
20260502014536 82 15 0.0 3.0 0.00 0.00 0.00 67 1010.4
20260502014020 82 0 0.0 5.0 0.00 0.00 0.00 66 1010.3
20260502013519 82 0 1.0 5.0 0.00 0.00 0.00 65 1010.4
20260502013051 82 283 0.0 4.0 0.00 0.00 0.00 64 1010.4
20260502012519 83 102 0.0 3.0 0.00 0.00 0.00 64 1010.3
20260502012022 83 294 1.0 7.0 0.00 0.00 0.00 63 1010.2
20260502011557 83 289 1.0 7.0 0.00 0.00 0.00 63 1010.2
20260502011020 83 270 2.0 7.0 0.00 0.00 0.00 63 1010.0
20260502010520 83 0 2.0 7.0 0.00 0.00 0.00 63 1009.9
20260502010044 83 284 2.0 7.0 0.00 0.00 0.00 63 1009.8
20260502005520 83 273 2.0 7.0 0.00 0.00 0.00 63 1009.8
20260502005020 83 272 2.0 7.0 0.00 0.00 0.00 63 1009.7
20260502004552 83 248 3.0 7.0 0.00 0.00 0.00 62 1009.5
20260502004021 83 275 1.0 4.0 0.00 0.00 0.00 62 1009.5
20260502003524 84 275 1.0 4.0 0.00 0.00 0.00 62 1009.3
20260502003034 84 275 2.0 4.0 0.00 0.00 0.00 61 1009.3
20260502002520 84 273 1.0 3.0 0.00 0.00 0.00 61 1009.1
20260502002023 84 269 0.0 3.0 0.00 0.00 0.00 61 1008.9
20260502001541 84 269 1.0 3.0 0.00 0.00 0.00 61 1009.0
20260502001023 84 269 2.0 4.0 0.00 0.00 0.00 62 1008.9
20260502000519 84 266 1.0 4.0 0.00 0.00 0.00 61 1008.9
20260502000046 84 276 2.0 4.0 0.00 0.00 0.00 59 1008.9
20260501235523 85 271 2.0 4.0 0.00 0.00 0.00 59 1008.8
20260501235019 85 243 1.0 4.0 0.00 0.00 0.00 61 1008.8
20260501234542 85 200 1.0 3.0 0.00 0.00 0.00 63 1008.7
20260501234019 86 250 1.0 4.0 0.00 0.00 0.00 63 1008.7
20260501233518 86 275 2.0 4.0 0.00 0.00 0.00 62 1008.7
20260501233041 86 236 3.0 4.0 0.00 0.00 0.00 61 1008.7
20260501232519 86 234 2.0 5.0 0.00 0.00 0.00 59 1008.7
20260501232023 86 236 3.0 5.0 0.00 0.00 0.00 58 1008.6
20260501231548 87 234 3.0 5.0 0.00 0.00 0.00 58 1008.6
20260501231019 87 234 3.0 5.0 0.00 0.00 0.00 56 1008.6
20260501230522 87 234 3.0 7.0 0.00 0.00 0.00 57 1008.5
20260501230042 87 234 4.0 7.0 0.00 0.00 0.00 57 1008.5
20260501225519 87 235 4.0 9.0 0.00 0.00 0.00 55 1008.4
20260501225023 87 235 4.0 10.0 0.00 0.00 0.00 58 1008.4
20260501224542 87 240 5.0 10.0 0.00 0.00 0.00 54 1008.3
20260501224024 88 239 6.0 12.0 0.00 0.00 0.00 53 1008.2
20260501223522 88 246 6.0 12.0 0.00 0.00 0.00 53 1008.2
20260501223042 88 272 7.0 12.0 0.00 0.00 0.00 53 1008.2
20260501222524 88 233 5.0 12.0 0.00 0.00 0.00 54 1008.2
20260501222023 88 246 8.0 12.0 0.00 0.00 0.00 53 1008.2
20260501221547 88 236 7.0 12.0 0.00 0.00 0.00 53 1008.1
20260501221023 88 228 7.0 12.0 0.00 0.00 0.00 51 1008.0
20260501220523 88 219 4.0 10.0 0.00 0.00 0.00 53 1008.1